Powrót do katalogu

SL-12 R/B(2)

AktywnyGEO
NORAD 14195·ROCKET BODY·🇷🇺 Russia

Wystrzelony Oct 9, 1981 z Baikonur Cosmodrome

Loading…

TLE

ŚwieżeSource: Space-Track

Epoka: Sep 14, 2026, 09:32 UTC

1 14195U 81102F   26257.39788141 -.00000160  00000-0  00000-0 0  9993
2 14195   6.4044 293.7059 0009559 238.9053 120.8682  1.00245544123898

Śledź SL-12 R/B(2) w czasie rzeczywistym z AllMySat

Download on the App Store